FW1937 Weather Reports


time (UTC)temp
C
wind
direction
speed
KPH
gust
KPH
rain 1hr
cm
rain 24hr
cm
rain mn
cm
humidity
%
barometer
mb
20260502194946 16 225 4.8 8.0 0.00 0.08 0.08 72 1007.0
20260502194446 16 244 6.4 12.9 0.00 0.08 0.08 72 1007.3
20260502193945 16 213 8.0 12.9 0.00 0.08 0.08 72 1007.3
20260502193446 16 165 8.0 16.1 0.00 0.08 0.08 72 1007.4
20260502192945 16 172 6.4 16.1 0.00 0.08 0.08 72 1007.5
20260502192700 16 219 3.2 8.0 0.00 0.08 0.08 72 1007.5
20260502191936 16 205 1.6 6.4 0.00 0.08 0.08 72 1007.6
20260502191656 16 290 1.6 6.4 0.00 0.08 0.08 72 1007.6
20260502191154 16 205 1.6 3.2 0.00 0.08 0.08 72 1007.6
20260502190435 16 184 3.2 8.0 0.00 0.08 0.08 72 1007.6
20260502185935 16 156 4.8 8.0 0.00 0.08 0.08 72 1007.7
20260502185436 16 156 4.8 8.0 0.00 0.08 0.08 72 1007.7
20260502184935 16 170 4.8 9.7 0.00 0.08 0.08 72 1007.8
20260502184702 16 291 4.8 9.7 0.00 0.08 0.08 73 1007.7
20260502183429 17 233 6.4 9.7 0.00 0.08 0.08 72 1007.6
20260502182429 17 237 3.2 8.0 0.00 0.08 0.08 72 1007.6
20260502181929 17 194 4.8 8.0 0.00 0.08 0.08 73 1007.6
20260502181428 17 194 4.8 8.0 0.00 0.08 0.08 73 1007.4
20260502181152 17 213 3.2 8.0 0.00 0.08 0.08 73 1007.5
20260502180429 17 217 3.2 8.0 0.03 0.08 0.08 73 1007.6
20260502170423 18 147 0.0 3.2 0.05 0.05 0.05 72 1007.5
20260502170135 18 147 1.6 3.2 0.05 0.05 0.05 72 1007.6
20260502163909 18 147 1.6 11.3 0.05 0.05 0.05 72 1007.9
20260502163411 18 147 4.8 11.3 0.05 0.05 0.05 72 1008.1
20260502162909 18 155 6.4 12.9 0.05 0.05 0.05 72 1008.0
20260502162411 18 168 8.0 16.1 0.05 0.05 0.05 72 1008.0
20260502161908 19 127 8.0 16.1 0.05 0.05 0.05 72 1008.0
20260502161411 19 124 9.7 17.7 0.05 0.05 0.05 72 1008.0
20260502160908 19 121 6.4 17.7 0.05 0.05 0.05 71 1008.1
20260502160412 20 146 6.4 9.7 0.03 0.03 0.03 71 1008.3
20260502152139 20 148 1.6 11.3 0.00 0.00 0.00 71 1008.4
20260502151632 20 126 0.0 4.8 0.00 0.00 0.00 71 1008.4
20260502150901 20 111 0.0 1.6 0.00 0.00 0.00 71 1008.4
20260502150404 20 111 0.0 1.6 0.00 0.00 0.00 70 1008.5
20260502130342 17 107 9.7 20.9 0.00 0.00 0.00 71 1009.7
20260502123609 17 64 6.4 16.1 0.00 0.00 0.00 72 1009.6
20260502122842 17 85 4.8 16.1 0.00 0.00 0.00 72 1009.9
20260502122342 17 110 3.2 14.5 0.00 0.00 0.00 72 1009.9
20260502121839 17 31 3.2 14.5 0.00 0.00 0.00 72 1010.0
20260502121338 17 61 3.2 8.0 0.00 0.00 0.00 72 1010.2
20260502120835 18 47 4.8 14.5 0.00 0.00 0.00 72 1010.4
20260502120554 18 5 4.8 14.5 0.00 0.00 0.00 72 1010.4
20260502115828 18 25 4.8 12.9 0.00 0.00 0.00 72 1010.4
20260502114828 18 5 4.8 14.5 0.00 0.00 0.00 72 1010.4
20260502114327 18 27 4.8 14.5 0.00 0.00 0.00 72 1010.4
20260502113827 18 16 3.2 9.7 0.00 0.00 0.00 72 1010.7
20260502113327 18 20 3.2 8.0 0.00 0.00 0.00 72 1010.6
20260502112828 18 330 4.8 8.0 0.00 0.00 0.00 72 1010.6
20260502112322 18 161 6.4 11.3 0.00 0.00 0.00 72 1010.5
20260502111818 18 130 3.2 19.3 0.00 0.00 0.00 73 1010.4
20260502111319 18 49 6.4 19.3 0.00 0.00 0.00 73 1010.5
20260502110819 18 34 11.3 27.4 0.00 0.00 0.00 75 1010.4
20260502110318 18 300 11.3 27.4 0.00 0.00 0.00 75 1010.3
20260502105817 18 308 12.9 25.7 0.00 0.00 0.00 76 1010.6
20260502105317 19 309 16.1 25.7 0.00 0.00 0.00 79 1010.4
20260502104318 21 275 9.7 27.4 0.00 0.00 0.00 94 1010.5
20260502103817 21 168 9.7 29.0 0.00 0.00 0.00 95 1010.8
20260502103540 21 273 11.3 29.0 0.00 0.00 0.00 95 1010.6
20260502102817 21 234 16.1 35.4 0.00 0.00 0.00 95 1010.5
20260502102317 21 281 16.1 35.4 0.00 0.00 0.00 95 1010.7
20260502102045 21 178 16.1 29.0 0.00 0.00 0.00 95 1010.6
20260502101538 21 192 16.1 25.7 0.00 0.00 0.00 95 1010.5
20260502101027 21 175 19.3 37.0 0.00 0.00 0.00 95 1010.2
20260502100526 21 167 17.7 37.0 0.00 0.00 0.00 95 1010.0
20260502091309 20 141 16.1 33.8 0.00 0.00 0.00 95 1009.9
20260502090809 20 155 17.7 33.8 0.00 0.00 0.00 95 1009.9
20260502090309 20 165 19.3 40.2 0.00 0.00 0.00 95 1009.9
20260502071306 20 172 20.9 38.6 0.00 0.03 0.00 95 1009.9
20260502070805 20 188 22.5 43.5 0.00 0.03 0.00 95 1009.8
20260502070304 20 128 22.5 43.5 0.00 0.03 0.00 95 1010.0
20260502065804 20 180 22.5 38.6 0.00 0.03 0.00 95 1009.9
20260502065306 20 153 24.1 46.7 0.00 0.03 0.00 95 1010.1
20260502064804 20 171 22.5 46.7 0.00 0.03 0.00 95 1010.1
20260502064304 20 126 22.5 45.1 0.00 0.03 0.00 95 1010.0
20260502063805 20 122 24.1 38.6 0.00 0.03 0.00 95 1009.7
20260502063304 20 177 25.7 46.7 0.00 0.03 0.00 95 1009.9
20260502062805 20 158 25.7 46.7 0.00 0.03 0.00 95 1009.6
20260502062306 20 193 29.0 54.7 0.00 0.03 0.00 95 1009.6
20260502061804 20 128 29.0 54.7 0.00 0.03 0.00 95 1009.7
20260502061526 20 132 27.4 33.8 0.00 0.03 0.00 95 1009.7
20260502060805 20 152 27.4 59.5 0.00 0.03 0.00 95 1009.4
20260502060304 20 131 24.1 59.5 0.00 0.03 0.00 95 1009.6
20260502055804 20 188 19.3 40.2 0.00 0.03 0.00 95 1009.6
20260502055306 20 121 17.7 40.2 0.00 0.03 0.00 95 1009.7
20260502054804 20 142 17.7 38.6 0.00 0.03 0.00 95 1009.8
20260502054525 20 159 17.7 38.6 0.00 0.03 0.00 95 1009.9
20260502053804 20 130 19.3 38.6 0.00 0.03 0.00 95 1009.8
20260502053304 20 110 24.1 48.3 0.00 0.03 0.00 95 1009.8
20260502052807 20 189 24.1 48.3 0.00 0.03 0.00 95 1009.5
20260502052306 20 107 17.7 43.5 0.00 0.03 0.00 95 1009.5
20260502051805 20 110 19.3 41.8 0.00 0.03 0.00 95 1009.6
20260502051304 20 186 20.9 53.1 0.00 0.03 0.00 95 1009.6
20260502051023 20 101 19.3 53.1 0.00 0.03 0.00 95 1009.4
20260502050304 20 99 19.3 38.6 0.00 0.03 0.00 95 1009.4
20260502050021 20 148 17.7 37.0 0.00 0.03 0.00 95 1009.4
20260502045534 20 153 17.7 38.6 0.00 0.03 0.00 95 1009.4
20260502044804 20 126 20.9 38.6 0.00 0.03 0.00 95 1009.5
20260502044304 20 150 20.9 40.2 0.00 0.03 0.00 95 1009.4
20260502043805 20 147 22.5 40.2 0.00 0.03 0.00 95 1009.5
20260502043304 20 194 19.3 41.8 0.00 0.03 0.00 95 1009.5
20260502043025 20 158 20.9 41.8 0.00 0.03 0.00 95 1009.5
20260502042306 20 146 24.1 46.7 0.00 0.03 0.00 95 1009.4
20260502041805 20 190 20.9 46.7 0.00 0.03 0.00 95 1009.5
20260502041305 20 163 19.3 35.4 0.00 0.03 0.00 95 1009.3
20260502040805 20 132 19.3 35.4 0.00 0.03 0.00 95 1009.4
20260502040305 20 136 17.7 32.2 0.00 0.03 0.00 95 1009.5
20260502035805 20 107 19.3 45.1 0.00 0.03 0.00 95 1009.4
20260502035534 20 124 20.9 45.1 0.00 0.03 0.00 95 1009.5
20260502034805 20 132 20.9 49.9 0.00 0.03 0.00 95 1009.3
20260502034304 20 111 19.3 49.9 0.00 0.03 0.00 95 1009.4
20260502034022 20 204 19.3 37.0 0.00 0.03 0.00 95 1009.4
20260502033522 20 114 20.9 37.0 0.00 0.03 0.00 95 1009.4
20260502033030 20 157 19.3 40.2 0.00 0.03 0.00 95 1015.6
20260502032306 20 136 16.1 40.2 0.00 0.03 0.00 95 1009.5
20260502031805 20 154 20.9 48.3 0.00 0.03 0.00 95 1009.6
20260502031304 20 144 25.7 48.3 0.00 0.03 0.00 95 1009.5
20260502030804 20 146 24.1 46.7 0.00 0.03 0.00 95 1009.6
20260502030305 20 142 24.1 45.1 0.00 0.03 0.00 95 1009.6
20260502025804 21 118 24.1 45.1 0.00 0.03 0.00 95 1009.7
20260502025306 21 127 22.5 45.1 0.00 0.03 0.00 95 1009.6
20260502024804 21 55 25.7 49.9 0.00 0.03 0.00 95 1009.6
20260502024305 21 148 24.1 49.9 0.00 0.03 0.00 95 1009.7
20260502023804 21 205 24.1 43.5 0.00 0.03 0.00 95 1009.7
20260502023305 21 148 22.5 43.5 0.00 0.03 0.00 95 1009.5
20260502022805 21 108 22.5 46.7 0.00 0.03 0.00 95 1009.5
20260502022306 21 160 20.9 46.7 0.00 0.03 0.00 95 1009.6
20260502021804 21 174 19.3 38.6 0.00 0.03 0.00 94 1009.5
20260502021304 21 153 19.3 33.8 0.00 0.03 0.00 94 1009.7
20260502021028 21 104 20.9 38.6 0.00 0.03 0.00 94 1009.6
20260502020305 21 182 22.5 38.6 0.00 0.03 0.00 94 1009.7
20260502015804 21 163 22.5 45.1 0.00 0.03 0.00 94 1009.6
20260502015305 21 162 19.3 45.1 0.00 0.03 0.00 94 1009.5
20260502014805 21 122 17.7 37.0 0.00 0.03 0.00 94 1009.5
20260502014533 21 185 19.3 37.0 0.00 0.03 0.00 94 1009.6
20260502013805 21 131 19.3 33.8 0.00 0.03 0.00 94 1009.6
20260502013305 21 139 17.7 33.8 0.00 0.03 0.00 94 1009.6
20260502012804 21 153 17.7 29.0 0.00 0.03 0.00 94 1009.6
20260502012525 21 166 16.1 30.6 0.00 0.03 0.00 94 1009.6
20260502011804 21 142 16.1 30.6 0.00 0.03 0.00 94 1009.7
20260502011305 21 158 17.7 29.0 0.00 0.03 0.00 94 1009.7
20260502010805 21 123 19.3 41.8 0.00 0.03 0.00 95 1009.9
20260502010304 21 134 16.1 41.8 0.00 0.03 0.00 95 1009.9
20260502005804 21 171 16.1 30.6 0.00 0.03 0.00 95 1009.9
20260502005306 21 147 17.7 30.6 0.00 0.03 0.00 95 1010.0
20260502004804 21 94 16.1 33.8 0.00 0.03 0.00 94 1010.0
20260502004304 21 121 16.1 33.8 0.00 0.03 0.00 94 1010.1
20260502004025 21 162 17.7 41.8 0.00 0.03 0.00 94 1010.2
20260502003531 21 93 17.7 41.8 0.00 0.03 0.00 94 1010.2
20260502002804 21 125 19.3 40.2 0.00 0.03 0.00 94 1010.4
20260502002305 21 112 17.7 40.2 0.00 0.03 0.00 94 1010.3
20260502002028 21 192 17.7 33.8 0.00 0.03 0.00 94 1010.3
20260502001304 21 154 17.7 30.6 0.00 0.03 0.00 94 1010.5
20260502000804 21 155 17.7 33.8 0.00 0.03 0.00 94 1010.5
20260502000304 21 162 16.1 33.8 0.00 0.03 0.00 94 1010.5
20260501235305 21 98 19.3 37.0 0.00 0.03 0.00 94 1010.7
20260501234804 21 142 20.9 29.0 0.00 0.03 0.00 94 1010.7
20260501234304 21 171 22.5 41.8 0.00 0.03 0.00 94 1010.7
20260501233804 21 136 20.9 41.8 0.00 0.03 0.00 94 1010.7
20260501233304 21 160 19.3 38.6 0.00 0.03 0.00 94 1010.6
20260501233022 21 181 20.9 38.6 0.00 0.03 0.00 94 1010.7
20260501232529 21 160 19.3 40.2 0.00 0.03 0.00 94 1010.7
20260501231804 21 103 19.3 40.2 0.00 0.03 0.00 94 1010.7
20260501231304 21 197 17.7 33.8 0.00 0.03 0.00 94 1010.7
20260501230804 21 165 16.1 33.8 0.00 0.03 0.00 94 1010.8
20260501230528 21 174 17.7 30.6 0.00 0.03 0.00 94 1010.7
20260501225805 22 126 16.1 29.0 0.00 0.03 0.00 94 1010.7
20260501225530 22 182 16.1 30.6 0.00 0.03 0.00 94 1010.7
20260501224305 22 130 17.7 40.2 0.00 0.03 0.00 94 1010.8
20260501224028 22 130 20.9 40.2 0.00 0.03 0.00 94 1010.8
20260501223304 22 162 19.3 38.6 0.00 0.03 0.00 94 1010.9
20260501223026 22 198 16.1 27.4 0.00 0.03 0.00 94 1010.9
20260501222305 22 113 14.5 27.4 0.00 0.03 0.00 94 1010.9
20260501221804 22 138 12.9 38.6 0.00 0.03 0.00 94 1010.9
20260501221305 22 185 14.5 38.6 0.00 0.03 0.00 94 1011.0
20260501220804 22 123 17.7 38.6 0.00 0.03 0.00 94 1011.0
20260501220304 22 120 17.7 38.6 0.00 0.03 0.00 94 1011.0
20260501215804 22 176 20.9 46.7 0.00 0.03 0.03 94 1011.0
20260501215305 22 139 19.3 46.7 0.00 0.03 0.03 94 1011.1
20260501214804 22 182 16.1 32.2 0.00 0.03 0.03 94 1011.2
20260501214305 22 146 17.7 38.6 0.00 0.03 0.03 94 1011.1
20260501213804 22 137 19.3 38.6 0.00 0.03 0.03 94 1011.1
20260501213304 22 148 16.1 33.8 0.00 0.03 0.03 94 1011.1
20260501212804 22 114 17.7 35.4 0.00 0.03 0.03 94 1011.1
20260501212306 22 171 17.7 35.4 0.00 0.03 0.03 94 1011.0
20260501211803 22 203 12.9 25.7 0.00 0.03 0.03 94 1010.9
20260501211524 22 136 12.9 25.7 0.00 0.03 0.03 94 1010.9
20260501210803 22 127 11.3 27.4 0.00 0.03 0.03 94 1011.1
20260501210259 22 117 11.3 27.4 0.00 0.03 0.03 94 1011.0
20260501205800 22 151 12.9 29.0 0.00 0.03 0.03 94 1011.0
20260501205249 22 109 12.9 29.0 0.00 0.03 0.03 94 1011.1
20260501204746 22 178 12.9 25.7 0.00 0.03 0.03 94 1011.0
20260501204247 22 150 14.5 25.7 0.00 0.03 0.03 94 1010.9
20260501203747 22 188 14.5 25.7 0.00 0.03 0.03 94 1011.0
20260501203247 22 149 16.1 29.0 0.00 0.03 0.03 94 1011.0
20260501202747 22 199 16.1 29.0 0.00 0.03 0.03 94 1011.0
20260501202246 22 126 17.7 29.0 0.00 0.03 0.03 94 1010.9
20260501201747 22 128 16.1 30.6 0.00 0.03 0.03 94 1011.0
20260501201246 22 163 14.5 30.6 0.00 0.03 0.03 94 1010.9
20260501200747 22 145 12.9 25.7 0.00 0.03 0.03 94 1011.0
20260501200247 22 168 12.9 22.5 0.00 0.03 0.03 94 1010.9
20260501195747 22 182 11.3 22.5 0.00 0.03 0.03 94 1010.9
20260501195242 22 171 11.3 19.3 0.00 0.03 0.03 94 1010.9